Content
SEND FEEDBACK

Daily
Averages
Monthly
Summary
United States of America

ST. LOUIS, MISSOURI


Home > North America > United States > Missouri
Elevation: 163 meters     Latitude: 38 45N     Longitude: 090 22W

WEATHER
 
SELECT A DAY
Number of Records: 200,626;   Date Range: 1/1/95 - 11/26/14
 
SHARE

PRINT THIS DATA

[ ← Previous Day ]
WEATHER ALMANAC - 25 MAY, 2013
[ Next Day → ]
[ °F ]   °C
Weather ElementAverageHighLow
Temperature15.7 °C19.4 °C (5:54 pm)8.3 °C (2:54 am)
Dewpoint10.7 °C14.4 °C (7:54 pm)6.7 °C (2:54 am)
Humidity73.5 %90 % (2:54 am)47 % (9:54 am)
Barometer1024 hPa1026.8 hPa (6:54 am)1020 hPa (6:54 pm)
Wind Speed6 km/h14.8 km/h (9:54 am)
Weather ElementAverage
Visibility15.1 km
Wind DirectionENE (64.8 °)

Weather ElementTotal
Precipitation12.45 mm
Heating Degree Days4.5 (Base 18.3)
Growing Degree Days3.8 (Base 10)
Averaged from 27 records on 25 May, 2013
WEATHER CONDITIONS BREAKOUT
WIND DIRECTION BREAKOUT
WEATHER BY HOUR - 25 MAY, 2013
[ °F ]   °C
Local TimeTemperatureDewpointHumidityBarometerVisibilityWind DirectionWind SpeedGust SpeedPrecipitationEventsConditions
1:54 AM10 °C7.8 °C86 %1024.7 hPa16.1 kmCalmClear
2:54 AM8.3 °C6.7 °C90 %1025.1 hPa16.1 kmCalmClear
3:54 AM8.9 °C6.7 °C86 %1024.4 hPa16.1 kmCalmClear
4:54 AM9.4 °C7.2 °C86 %1025.1 hPa16.1 kmCalmClear
5:54 AM11.1 °C7.2 °C77 %1025.4 hPa16.1 kmCalmClear
6:54 AM11.7 °C7.8 °C77 %1026.8 hPa16.1 kmESE (120°)5.6 km/hOvercast
7:54 AM13.3 °C8.9 °C75 %1026.8 hPa16.1 kmESE (110°)5.6 km/hMostly Cloudy
8:54 AM16.7 °C7.8 °C56 %1026.1 hPa16.1 kmSE (130°)13 km/hMostly Cloudy
9:54 AM18.3 °C6.7 °C47 %1025.4 hPa16.1 kmSE (130°)14.8 km/hMostly Cloudy
10:54 AM18.9 °C8.3 °C50 %1026.1 hPa16.1 kmVariable11.1 km/hOvercast
11:54 AM18.3 °C8.9 °C54 %1026.1 hPa16.1 kmEast (100°)9.3 km/hOvercast
12:35 PM18 °C9 °C56 %1025.7 hPa16.1 kmESE (120°)7.4 km/hThunderstormOvercast
12:54 PM17.8 °C9.4 °C58 %1025.1 hPa16.1 kmESE (110°)11.1 km/h0 mmRain-ThunderstormLight Thunderstorms and Rain
1:54 PM15 °C12.8 °C87 %1025.7 hPa8 kmCalm2.54 mmRain-ThunderstormRain
2:03 PM15 °C13 °C88 %1025.4 hPa4 kmENE (70°)9.3 km/h1.52 mmRainHeavy Rain
2:21 PM16 °C13 °C82 %1024.7 hPa11.3 kmEast (100°)9.3 km/h2.79 mmRainLight Rain
2:31 PM16 °C13 °C82 %1024.7 hPa16.1 kmEast (100°)7.4 km/h2.79 mmThunderstormOvercast
2:54 PM16.1 °C13.3 °C83 %1024.4 hPa16.1 kmEast (100°)9.3 km/h2.79 mmOvercast
3:54 PM18.3 °C12.8 °C70 %1022.4 hPa16.1 kmVariable9.3 km/hOvercast
4:54 PM18.9 °C12.2 °C65 %1021.7 hPa16.1 kmSE (140°)11.1 km/hClear
5:54 PM19.4 °C12.8 °C66 %1021 hPa16.1 kmSSE (160°)5.6 km/hOvercast
6:54 PM19.4 °C13.9 °C70 %1020 hPa16.1 kmCalmOvercast
7:54 PM18.9 °C14.4 °C75 %1020.3 hPa16.1 kmEast (80°)7.4 km/hOvercast
8:54 PM18.3 °C14.4 °C78 %1020 hPa16.1 kmCalmOvercast
9:54 PM18.3 °C14.4 °C78 %1021.3 hPa16.1 kmEast (100°)5.6 km/hOvercast
10:54 PM16.1 °C12.8 °C81 %1021.7 hPa16.1 kmCalmClear
11:54 PM16.1 °C12.8 °C81 %1021.7 hPa16.1 kmEast (80°)7.4 km/hPartly Cloudy
Hourly data recorded from KSUS, located 0 kilometers away from St. Louis, Missouri







STORIES FROM OUR PARTNERS